Regional Weather Roundup
Issued by NWS

Home | Current Version | Previous Version | Text Only | Print | Product List | Glossary On
Versions: 1 2 3 4 5 6 7 8 9 10 11 12 13 14 15 16 17 18 19 20 21 22 23 24 25 26 27 28 29 30 31 32 33 34 35 36 37 38 39 40 41 42 43 44 45 46 47 48 49 50
000
ASUS43 KLSX 250107
RWRMO

WEATHER SUMMARY FOR MISSOURI
NATIONAL WEATHER SERVICE SPRINGFIELD MO
800 PM CDT SUN MAY 24 2015

NOTE: "FAIR" INDICATES FEW OR NO CLOUDS BELOW 12,000 FEET WITH NO
       SIGNIFICANT WEATHER AND/OR OBSTRUCTIONS TO VISIBILITY.
       CURRENT SKY AND/OR WEATHER CONDITIONS ARE NOT AVAILABLE FOR
       CHILLICOTHE AND FARMINGTON.

MOZ001>031-035>038-043-044-053-054-250200-
...NORTHERN AND WESTERN MISSOURI...

CITY           SKY/WX    TMP DP  RH WIND       PRES   REMARKS
KANSAS CTY INT CLOUDY    65  63  93 S3        29.81F
KANSAS C DTWN  CLOUDY    68  62  81 CALM      29.80F
LEE`S SUMMIT   CLOUDY    65  62  90 CALM      29.82F
ST JOSEPH      CLOUDY    67  63  87 S6        29.80F
CHILLICOTHE      N/A     67  64  90 S6        29.85S
KIRKSVILLE     CLOUDY    66  64  93 SW5       29.85S

$$
MOZ066>068-077>081-088>096-101>105-250200-
...SOUTHWEST MISSOURI...

CITY           SKY/WX    TMP DP  RH WIND       PRES   REMARKS
SPRINGFIELD    RAIN      64  61  90 W6        29.85R FOG
JOPLIN         LGT RAIN  66  64  93 CALM      29.85R

$$
MOZ032>034-039>042-045>050-055>058-069>072-250200-
...CENTRAL MISSOURI...

CITY           SKY/WX    TMP DP  RH WIND       PRES   REMARKS
COLUMBIA       CLOUDY    69  66  90 SW5       29.86F
JEFFERSON CITY CLOUDY    69  67  93 SE3       29.86S
ROLLA          LGT RAIN  67  65  93 CALM      29.86F
SEDALIA        LGT RAIN  67  64  90 CALM      29.86F
WARRENSBURG    CLOUDY    64  63  94 E3        29.82F
OSAGE BEACH    CLOUDY    66  64  94 CALM      29.85F

$$
MOZ051-052-059>065-250200-
...EAST CENTRAL MISSOURI...

CITY           SKY/WX    TMP DP  RH WIND       PRES   REMARKS
ST LOUIS INTL  LGT RAIN  79  66  64 S13G20    29.90S
SPIRIT OF STL  CLOUDY    72  69  90 CALM      29.88S
ST CHARLES     MOCLDY    75  67  76 S13       29.88R

$$
MOZ072>076-082>087-097>100-106>115-250200-
...SOUTH CENTRAL AND SOUTHEAST MISSOURI...

CITY           SKY/WX    TMP DP  RH WIND       PRES   REMARKS
CAPE GIRARDEAU PTCLDY    77  67  71 SE13      29.94R
FARMINGTON     CLOUDY    68  64  88 SW9       29.97R THUNDER
POPLAR BLUFF   CLOUDY    78  67  68 SE13      29.91R
WEST PLAINS    CLOUDY    68  63  84 S8        29.90F

$$


USA.gov is the U.S. government's official web portal to all federal, state and local government web resources and services.